Andilly, France

3:28 AM CEST on July 26, 2017 (GMT +0200)
Andilly

Weather History for 07150 - April, 2013

Change the Weather History Date:

Saturday, April 6, 2013

  Actual Average Record
Temperature  
Mean Temperature 42 °F -  
Max Temperature 46 °F 60 °F - ()
Min Temperature 37 °F 43 °F - ()
Degree Days  
Heating Degree Days 24    
Moisture  
Dew Point 31 °F    
Average Humidity 67    
Maximum Humidity 81    
Minimum Humidity 57    
Precipitation  
Precipitation 0.00 in 0.07 in - ()
Sea Level Pressure  
Sea Level Pressure 30.08 in    
Wind  
Wind Speed 8 mph ()    
Max Wind Speed 13 mph    
Max Gust Speed -    
Visibility 4.8 miles    
Events      
T = Trace of Precipitation, MM = Missing Value Source: Averaged Metar Reports

Daily Weather History Graph

Daily Weather History Graph

Search for Another Location

Airport or City:

Trip Planner

Search our weather history database for the weather conditions in past years. The results will help you decide how hot, cold, wet, or windy it might be!

Date:

Astronomy

Apr. 06, 2013 Rise Set
Actual Time 7:17 AM CEST 8:28 PM CEST
Civil Twilight 6:44 AM CEST 9:01 PM CEST
Nautical Twilight 6:05 AM CEST 9:40 PM CEST
Astronomical Twilight 5:23 AM CEST 10:22 PM CEST
Moon 5:11 AM CEST (4/6) 4:23 PM CEST (4/6)
Length of Visible Light 14h 16m
Length of Day
13h 11m
Waning Crescent, 17% of the Moon is Illuminated
Apr 6
Waning Crescent
Apr 10
New
Apr 18
First Quarter
Apr 25
Full
May 2
Last Quarter

Hourly Weather History & Observations

Time (CEST) Temp. Windchill Dew Point Humidity Pressure Visibility Wind Dir Wind Speed Gust Speed Precip Events Conditions
12:00 AM 39.2 °F 32.0 °F 28.4 °F 65% 29.95 in - NNE 11.5 mph - N/A   Overcast
12:30 AM 37.4 °F 30.8 °F 28.4 °F 70% 29.95 in - NNE 9.2 mph - N/A   Mist
1:00 AM 37.4 °F 30.8 °F 28.4 °F 70% 29.95 in - NNE 9.2 mph - N/A   Overcast
1:30 AM 37.4 °F 32.1 °F 28.4 °F 70% 29.95 in 3.1 mi NNE 6.9 mph - N/A   Overcast
2:00 AM 37.4 °F 32.8 °F 28.4 °F 70% 29.95 in 3.1 mi NNE 5.8 mph - N/A   Overcast
2:30 AM 37.4 °F 32.1 °F 28.4 °F 70% 29.95 in 3.1 mi NNE 6.9 mph - N/A   Mist
3:00 AM 37.4 °F 32.8 °F 28.4 °F 70% 29.95 in 3.1 mi North 5.8 mph - N/A   Mist
3:30 AM 37.4 °F 31.4 °F 28.4 °F 70% 29.95 in 3.7 mi North 8.1 mph - N/A   Unknown
4:00 AM 37.4 °F 32.1 °F 28.4 °F 70% 29.95 in 3.7 mi North 6.9 mph - N/A   Unknown
4:30 AM 37.4 °F 30.8 °F 30.2 °F 75% 29.98 in 3.7 mi North 9.2 mph - N/A   Unknown
5:00 AM 37.4 °F 32.1 °F 30.2 °F 75% 29.98 in 3.7 mi North 6.9 mph - N/A   Overcast
5:30 AM 37.4 °F 31.4 °F 30.2 °F 75% 29.98 in 3.1 mi North 8.1 mph - N/A   Overcast
6:00 AM 37.4 °F 30.8 °F 30.2 °F 75% 29.98 in 3.1 mi North 9.2 mph - N/A   Overcast
6:30 AM 37.4 °F 31.4 °F 30.2 °F 75% 30.01 in 3.1 mi North 8.1 mph - N/A   Mist
7:00 AM 37.4 °F 32.1 °F 30.2 °F 75% 30.01 in 3.1 mi North 6.9 mph - N/A   Mist
7:30 AM 37.4 °F 32.1 °F 32.0 °F 81% 30.04 in 3.7 mi North 6.9 mph - N/A   Unknown
8:00 AM 37.4 °F 32.1 °F 32.0 °F 81% 30.04 in 4.3 mi North 6.9 mph - N/A   Unknown
8:30 AM 37.4 °F 31.4 °F 32.0 °F 81% 30.06 in 5.6 mi North 8.1 mph - N/A   Unknown
9:00 AM 37.4 °F 31.4 °F 32.0 °F 81% 30.06 in 6.2 mi North 8.1 mph - N/A   Mostly Cloudy
9:30 AM 39.2 °F 33.0 °F 30.2 °F 70% 30.06 in 6.2 mi North 9.2 mph - N/A   Mostly Cloudy
10:00 AM 41.0 °F 34.7 °F 32.0 °F 70% 30.06 in 5.6 mi North 10.4 mph - N/A   Unknown
10:30 AM 41.0 °F 35.2 °F 32.0 °F 70% 30.09 in 5.0 mi North 9.2 mph - N/A   Mostly Cloudy
11:00 AM 42.8 °F 37.0 °F 32.0 °F 66% 30.09 in 5.0 mi North 10.4 mph - N/A   Mostly Cloudy
11:30 AM 44.6 °F 38.8 °F 32.0 °F 61% 30.09 in 5.0 mi North 11.5 mph - N/A   Mostly Cloudy
12:00 PM 42.8 °F 36.6 °F 32.0 °F 66% 30.09 in 5.0 mi NNE 11.5 mph - N/A   Mostly Cloudy
12:30 PM 42.8 °F 36.6 °F 32.0 °F 66% 30.09 in 4.3 mi North 11.5 mph - N/A   Overcast
1:00 PM 44.6 °F 39.2 °F 32.0 °F 61% 30.12 in 5.0 mi North 10.4 mph - N/A   Overcast
1:30 PM 44.6 °F 38.4 °F 32.0 °F 61% 30.12 in 4.3 mi NNE 12.7 mph - N/A   Overcast
2:00 PM 44.6 °F 39.2 °F 32.0 °F 61% 30.12 in 4.3 mi NNE 10.4 mph - N/A   Overcast
2:30 PM 44.6 °F 38.8 °F 32.0 °F 61% 30.12 in 4.3 mi NNE 11.5 mph - N/A   Overcast
3:00 PM 46.4 °F 41.9 °F 32.0 °F 57% 30.12 in 4.3 mi North 9.2 mph - N/A   Overcast
3:30 PM 46.4 °F 41.5 °F 32.0 °F 57% 30.12 in 5.0 mi North 10.4 mph - N/A   Overcast
4:00 PM 44.6 °F 39.2 °F 30.2 °F 57% 30.12 in 5.6 mi North 10.4 mph - N/A   Overcast
4:30 PM 46.4 °F 41.5 °F 32.0 °F 57% 30.12 in 5.6 mi NNE 10.4 mph - N/A   Overcast
5:00 PM 44.6 °F 40.2 °F 32.0 °F 61% 30.12 in 5.6 mi North 8.1 mph - N/A   Overcast
5:30 PM 44.6 °F 39.2 °F 30.2 °F 57% 30.12 in 5.6 mi North 10.4 mph - N/A   Overcast
6:00 PM 44.6 °F 39.2 °F 32.0 °F 61% 30.15 in 5.6 mi North 10.4 mph - N/A   Overcast
6:30 PM 44.6 °F 38.8 °F 32.0 °F 61% 30.15 in 5.6 mi North 11.5 mph - N/A   Overcast
7:00 PM 44.6 °F 39.2 °F 32.0 °F 61% 30.15 in 5.6 mi North 10.4 mph - N/A   Overcast
7:30 PM 44.6 °F 39.7 °F 32.0 °F 61% 30.18 in 5.6 mi North 9.2 mph - N/A   Overcast
8:00 PM 44.6 °F 40.2 °F 32.0 °F 61% 30.18 in 5.6 mi North 8.1 mph - N/A   Unknown
8:30 PM 44.6 °F 40.7 °F 32.0 °F 61% 30.18 in 5.0 mi North 6.9 mph - N/A   Unknown
9:00 PM 42.8 °F 38.0 °F 32.0 °F 66% 30.18 in 5.6 mi NNE 8.1 mph - N/A   Unknown
9:30 PM 42.8 °F 38.0 °F 32.0 °F 66% 30.18 in 6.2 mi NNE 8.1 mph - N/A   Unknown
10:00 PM 42.8 °F 38.6 °F 30.2 °F 61% 30.21 in 6.2 mi NNE 6.9 mph - N/A   Unknown
10:30 PM 41.0 °F 38.0 °F 30.2 °F 65% 30.21 in 6.2 mi NNE 4.6 mph - N/A   Unknown
11:00 PM 39.2 °F 35.9 °F 30.2 °F 70% 30.21 in 5.6 mi NNE 4.6 mph - N/A   Unknown
11:30 PM 37.4 °F 34.9 °F 30.2 °F 75% 30.21 in 6.2 mi North 3.5 mph - N/A   Unknown